TimePDT,TemperatureF,Dew PointF,Humidity,Sea Level PressureIn,VisibilityMPH,Wind Direction,Wind SpeedMPH,Gust SpeedMPH,PrecipitationIn,Events,Conditions,WindDirDegrees,DateUTC
12:53 AM,42.1,27.0,55,30.10,10.0,Calm,Calm,-,N/A,,Clear,0,2012-10-19 07:53:00
1:53 AM,42.1,25.0,51,30.11,10.0,Calm,Calm,-,N/A,,Clear,0,2012-10-19 08:53:00
2:53 AM,37.9,26.1,62,30.10,10.0,North,5.8,-,N/A,,Clear,360,2012-10-19 09:53:00
3:53 AM,39.9,28.0,63,30.09,10.0,NE,4.6,-,N/A,,Clear,40,2012-10-19 10:53:00
4:53 AM,41.0,30.0,65,30.08,10.0,Calm,Calm,-,N/A,,Clear,0,2012-10-19 11:53:00
5:53 AM,39.0,28.0,65,30.09,10.0,Calm,Calm,-,N/A,,Clear,0,2012-10-19 12:53:00
6:53 AM,39.0,28.9,67,30.10,10.0,Calm,Calm,-,N/A,,Clear,0,2012-10-19 13:53:00
7:53 AM,44.1,30.9,60,30.09,10.0,ENE,3.5,-,N/A,,Clear,60,2012-10-19 14:53:00
8:53 AM,48.9,34.0,56,30.11,10.0,Calm,Calm,-,N/A,,Clear,0,2012-10-19 15:53:00
9:53 AM,54.0,35.1,49,30.12,10.0,Calm,Calm,-,N/A,,Partly Cloudy,0,2012-10-19 16:53:00
10:53 AM,60.1,36.0,41,30.09,10.0,Calm,Calm,-,N/A,,Overcast,0,2012-10-19 17:53:00
11:53 AM,66.0,39.0,37,30.06,10.0,Calm,Calm,-,N/A,,Overcast,0,2012-10-19 18:53:00
12:53 PM,72.0,34.0,25,30.04,10.0,Variable,4.6,-,N/A,,Mostly Cloudy,0,2012-10-19 19:53:00
1:53 PM,75.0,34.0,22,29.99,10.0,ESE,3.5,-,N/A,,Partly Cloudy,110,2012-10-19 20:53:00
2:53 PM,75.0,36.0,24,29.97,10.0,Variable,3.5,-,N/A,,Overcast,0,2012-10-19 21:53:00
3:53 PM,73.0,41.0,31,29.96,6.0,West,15.0,-,N/A,,Haze,280,2012-10-19 22:53:00
4:53 PM,71.1,39.9,32,29.95,10.0,West,11.5,-,N/A,,Overcast,280,2012-10-19 23:53:00
5:53 PM,69.1,42.1,38,29.95,10.0,West,6.9,-,N/A,,Overcast,270,2012-10-20 00:53:00
6:53 PM,68.0,42.1,39,29.95,10.0,West,5.8,-,N/A,,Overcast,260,2012-10-20 01:53:00
7:53 PM,64.9,43.0,45,29.94,10.0,SW,6.9,-,N/A,,Overcast,230,2012-10-20 02:53:00
8:53 PM,63.0,44.1,50,29.94,10.0,West,6.9,-,N/A,,Overcast,260,2012-10-20 03:53:00
9:53 PM,63.0,45.0,52,29.94,10.0,NW,5.8,-,N/A,,Overcast,310,2012-10-20 04:53:00
10:53 PM,60.1,46.9,62,29.95,10.0,WNW,8.1,-,N/A,,Overcast,300,2012-10-20 05:53:00
11:53 PM,59.0,48.0,67,29.95,10.0,NW,11.5,-,N/A,,Partly Cloudy,320,2012-10-20 06:53:00